This demonstration page uses our WeatherBlox Daily Observations layout. Learn more.

Hourly Observations for December 17, 2017

Temp ( °F °C ) Dew Point ( °F °C ) Humidity (%) Winds ( mph kmh ) Pressure ( in mb ) Visibility ( mi km ) Precip ( " mm )
12:15 am 00:15 Clear 35 1.6 32 0 89 89 NNE 13 20 30.03 1017 10 16.09344 0 0
12:35 am 00:35 Clear 35 1.7 32 0 89 89 NNE 12 19 30.03 1017 10 16.09344 0 0
12:55 am 00:55 Mostly Cloudy 35 1.8 32 0 88 88 NE 10 17 30.03 1017 10 16.09344 0 0
1:15 am 01:15 Cloudy 36 2 32 0 87 87 NE 9 15 30.06 1018 10 16.09344 0 0
1:35 am 01:35 Cloudy 36 2.1 32 0 86 86 NE 10 17 30.06 1018 10 16.09344 0 0
1:55 am 01:55 Mostly Cloudy 36 2 32 0 87 87 NNE 12 19 30.06 1018 10 16.09344 0 0
2:15 am 02:15 Mostly Cloudy 35 1.8 32 -0.2 87 87 NE 9 15 30.09 1019 10 16.09344 0 0
2:35 am 02:35 Mostly Cloudy 35 1.6 31 -0.4 87 87 NNE 12 19 30.06 1018 10 16.09344 0 0
2:55 am 02:55 Partly Cloudy 35 1.5 31 -0.5 87 87 NNE 13 20 30.06 1018 10 16.09344 0 0
3:15 am 03:15 Mostly Cloudy 34 1.1 31 -0.8 87 87 NNE 12 19 30.06 1018 10 16.09344 0 0
3:35 am 03:35 Mostly Cloudy 33 0.6 30 -1.2 88 88 NNE 9 15 30.06 1018 10 16.09344 0 0
3:55 am 03:55 Partly Cloudy 32 0 29 -1.7 88 88 N 9 15 30.09 1019 10 16.09344 0 0
4:15 am 04:15 Clear 31 -0.5 28 -2 90 90 N 8 13 30.09 1019 10 16.09344 0 0
4:35 am 04:35 Clear 30 -1 28 -2.5 90 90 N 8 13 30.09 1019 10 16.09344 0 0
4:55 am 04:55 Clear 29 -1.7 26 -3.1 90 90 N 8 13 30.09 1019 10 16.09344 0 0
5:15 am 05:15 Clear 29 -1.7 27 -3 91 91 N 6 9 30.09 1019 10 16.09344 0 0
5:35 am 05:35 Clear 27 -2.7 25 -3.9 92 92 N 8 13 30.15 1021 10 16.09344 0 0
5:55 am 05:55 Clear 26 -3.1 24 -4.4 91 91 N 8 13 30.15 1021 10 16.09344 0 0
6:15 am 06:15 Clear 26 -3.2 24 -4.4 92 92 NNW 8 13 30.15 1021 10 16.09344 0 0
6:35 am 06:35 Partly Cloudy 28 -2.5 25 -3.7 92 92 N 8 13 30.15 1021 10 16.09344 0 0
6:55 am 06:55 Partly Cloudy 27 -2.6 25 -4 90 90 NNW 6 9 30.15 1021 10 16.09344 0 0
7:15 am 07:15 Clear 24 -4.2 22 -5.6 90 90 NNW 6 9 30.18 1022 10 16.09344 0 0
7:35 am 07:35 Clear 24 -4.2 22 -5.5 91 91 NNW 3 6 30.18 1022 10 16.09344 0 0
7:55 am 07:55 Clear 24 -4.4 22 -5.6 91 91 N 6 9 30.18 1022 10 16.09344 0 0
8:15 am 08:15 Partly Cloudy with Mist and Fog 26 -3.5 24 -4.4 94 94 N 8 13 30.18 1022 5 8.04672 0 0
8:35 am 08:35 Mostly Cloudy 30 -1 28 -2 93 93 NNE 6 9 30.15 1021 10 16.09344 0 0
8:55 am 08:55 Cloudy 32 0 30 -1.2 92 92 NNW 6 9 30.15 1021 10 16.09344 0 0
9:15 am 09:15 Cloudy 33 0.5 31 -0.5 93 93 NNW 9 15 30.15 1021 10 16.09344 0 0
9:35 am 09:35 Cloudy 34 1 31 -0.5 90 90 NNW 7 11 30.12 1020 10 16.09344 0 0
9:55 am 09:55 Cloudy 35 1.6 32 0 89 89 N 7 11 30.12 1020 10 16.09344 0 0
10:15 am 10:15 Cloudy 36 2 32 0 87 87 N 8 13 30.12 1020 10 16.09344 0 0
10:35 am 10:35 Cloudy 37 2.5 32 0 84 84 NNW 6 9 30.12 1020 10 16.09344 0 0
10:55 am 10:55 Cloudy 37 2.8 32 0 82 82 NNW 7 11 30.12 1020 10 16.09344 0 0
11:15 am 11:15 Cloudy 38 3.2 32 -0.1 79 79 N 5 7 30.12 1020 10 16.09344 0 0
11:35 am 11:35 Cloudy 38 3.6 32 0 78 78 N 6 9 30.12 1020 10 16.09344 0 0
11:55 am 11:55 Cloudy 39 3.8 32 0 77 77 N 10 17 30.12 1020 10 16.09344 0 0
12:15 pm 12:15 Cloudy 39 4.1 32 -0.1 74 74 NNW 7 11 30.09 1019 10 16.09344 0 0
12:35 pm 12:35 Cloudy 39 4 31 -0.3 74 74 N 7 11 30.06 1018 10 16.09344 0 0
12:55 pm 12:55 Cloudy 40 4.5 32 -0.2 72 72 NNW 8 13 30.06 1018 10 16.09344 0 0
1:15 pm 13:15 Cloudy 40 4.5 31 -0.4 71 71 N 9 15 30.06 1018 10 16.09344 0 0
1:35 pm 13:35 Cloudy 40 4.5 31 -0.3 71 71 NNW 8 13 30.03 1017 10 16.09344 0 0
1:55 pm 13:55 Cloudy 40 4.7 31 -0.5 69 69 NNW 9 15 30.03 1017 10 16.09344 0 0
2:15 pm 14:15 Cloudy 40 4.7 31 -0.5 69 69 NNW 8 13 30.03 1017 10 16.09344 0 0
2:35 pm 14:35 Cloudy 40 4.7 31 -0.5 69 69 N 8 13 30.03 1017 10 16.09344 0 0
2:55 pm 14:55 Cloudy 40 4.5 31 -0.5 70 70 NNW 7 11 30.03 1017 10 16.09344 0 0
3:15 pm 15:15 Cloudy 40 4.5 31 -0.5 70 70 NW 6 9 30.03 1017 10 16.09344 0 0
3:35 pm 15:35 Cloudy 40 4.6 32 -0.2 71 71 WNW 6 9 30.03 1017 10 16.09344 0 0
3:55 pm 15:55 Cloudy 40 4.7 32 -0.2 71 71 NNW 5 7 30.03 1017 10 16.09344 0 0
4:15 pm 16:15 Cloudy 40 4.5 31 -0.3 71 71 WNW 3 6 30.03 1017 10 16.09344 0 0
4:35 pm 16:35 Cloudy 40 4.5 31 -0.4 71 71 WNW 3 6 30.03 1017 10 16.09344 0 0
4:55 pm 16:55 Cloudy 40 4.2 31 -0.5 72 72 Calm 30.03 1017 10 16.09344 0 0
5:15 pm 17:15 Cloudy 39 4.1 31 -0.5 72 72 Calm 30.03 1017 10 16.09344 0 0
5:35 pm 17:35 Cloudy 39 4.1 31 -0.5 72 72 Calm 30.03 1017 10 16.09344 0 0
5:55 pm 17:55 Cloudy 39 3.7 31 -0.5 74 74 Calm 30.03 1017 10 16.09344 0 0
6:15 pm 18:15 Cloudy 38 3.2 31 -0.6 76 76 Calm 30.06 1018 10 16.09344 0 0
6:35 pm 18:35 Cloudy 38 3.5 31 -0.5 75 75 Calm 30.03 1017 10 16.09344 0 0
6:55 pm 18:55 Cloudy 37 2.5 31 -0.8 79 79 Calm 30.06 1018 10 16.09344 0 0
7:15 pm 19:15 Partly Cloudy 37 2.9 31 -0.5 79 79 Calm 30.06 1018 10 16.09344 0 0
7:35 pm 19:35 Clear 33 0.7 29 -1.5 85 85 Calm 30.06 1018 10 16.09344 0 0
7:55 pm 19:55 Clear 32 0 28 -2 87 87 SSE 5 7 30.09 1019 7 11.265408 0 0
8:15 pm 20:15 Clear 30 -1 27 -2.7 88 88 S 6 9 30.12 1020 10 16.09344 0 0
8:35 pm 20:35 Clear 28 -2 26 -3.5 90 90 S 5 7 30.12 1020 10 16.09344 0 0
8:55 pm 20:55 Clear 28 -2.5 25 -4 90 90 S 6 9 30.15 1021 10 16.09344 0 0
9:15 pm 21:15 Clear 26 -3.4 23 -4.8 90 90 S 5 7 30.15 1021 10 16.09344 0 0
9:35 pm 21:35 Clear 26 -3.5 23 -4.8 91 91 S 6 9 30.15 1021 10 16.09344 0 0
9:55 pm 21:55 Clear 26 -3.1 24 -4.5 90 90 S 6 9 30.15 1021 10 16.09344 0 0
10:15 pm 22:15 Clear 26 -3.4 23 -4.9 90 90 SSW 6 9 30.12 1020 10 16.09344 0 0
10:35 pm 22:35 Clear 26 -3.1 24 -4.3 92 92 SW 3 6 30.15 1021 10 16.09344 0 0
10:55 pm 22:55 Clear 26 -3.1 24 -4.3 92 92 SW 3 6 30.12 1020 10 16.09344 0 0
11:15 pm 23:15 Clear 28 -2.4 26 -3.6 92 92 WSW 3 6 30.09 1019 10 16.09344 0 0
11:35 pm 23:35 Clear 29 -1.5 26 -3.1 89 89 WSW 3 6 30.09 1019 10 16.09344 0 0
11:55 pm 23:55 Clear 29 -1.9 25 -3.7 88 88 WSW 7 11 30.09 1019 10 16.09344 0 0

Powered by AerisWeather